Cosmos 2279 Rocket - Orbit

View from above orbital plane
View from above orbital plane
View from above satellite
View from above satellite

Ground track
Ground track

The orbit data is extracted from the following two-line orbital elements,

1 23093U 94024B   13141.07459771  .00000040  00000-0  25133-4 0  6894
2 23093 082.9455 141.1106 0009705 206.0939 153.9730 13.77576806426545
Epoch (UTC): 21 May 2013 01:47:25
Eccentricity: 0.0009705
inclination: 82.9455°
perigee height: 965 km
apogee height: 979 km
right ascension of ascending node: 141.1106°
argument of perigee: 206.0939°
revolutions per day: 13.77576806
mean anomaly at epoch: 153.9730°
orbit number at epoch: 42654

The dashed part of the orbit path shows where the satellite is in the earth's shadow,  

Developed and maintained by Chris Peat, Heavens-Above GmbH. Please read the updated FAQ before sending e-mail. Imprint. DLR